Location: Oshawa
(43.9000°N, 78.8670°W)
Time: 18:07:50
(UTC-04:00)

PAYLOAD A - Visible Passes

Search period start: 23 April 2014 00:00
Search period end: 03 May 2014 00:00
Orbit: 693 x 832 km, 98.2° (Epoch: 23 April)

Date Brightness Start Highest point End Pass type
(mag) Time Alt. Az. Time Alt. Az. Time Alt. Az.
24 Apr 6.5 21:22:45 10° SW 21:26:11 19° W 21:29:43 10° NW visible
25 Apr 5.2 20:43:50 10° S 20:48:23 43° W 20:53:09 10° NNW visible
26 Apr 6.9 21:49:04 10° WSW 21:50:31 11° W 21:51:59 10° WNW visible
27 Apr 6.1 21:08:34 10° SSW 21:12:35 26° W 21:16:45 10° NW visible
29 Apr 6.6 21:33:58 10° SW 21:36:52 16° W 21:39:50 10° NW visible
30 Apr 5.7 20:54:34 10° SSW 20:59:00 34° W 21:03:38 10° NNW visible
02 May 6.5 21:19:33 10° SW 21:23:15 21° W 21:27:04 10° NW visible
